Back to catalog

STARLINK-32022

AliveCommunicationsVLEO
NORAD 60149·PAYLOAD·🇺🇸 United States

Launched Jun 27, 2024 from Cape Canaveral Space Force Station

Loading…

Next Passes (next 24 hours)

TLE

FreshSource: CelesTrak SupGP

Epoch: Sep 14, 2026, 21:33 UTC

1 60149C 24120Q   26257.89840278 -.00065070  00000+0 -19220-2 0  2579
2 60149  53.1580 157.9223 0001351  93.0723 109.1941 15.34430860    17

Track STARLINK-32022 in real time with AllMySat

Download on the App Store